CFS8699 KSEA-KBLI

Flight info

Callsign CFS8699
Flight time 0h 36m
Altitude 6000
Route SEA PAE MADEE MADEE6
Aircraft C208/L-SDFGR/C

Departure

Time 2026-04-25 01:03
Airport Seattle–Tacoma International Airport (KSEA)

Arrival

Time 2026-04-25 01:39
Airport Bellingham International Airport (KBLI)
Time Latitude Longitude Altitude Speed Heading
2026-04-25 00:37 47.46271 -122.29810 441 ft 0 kts 89°
2026-04-25 00:52 47.46257 -122.29789 434 ft 9 kts 175°
2026-04-25 00:53 47.46202 -122.29845 441 ft 10 kts 243°
2026-04-25 00:53 47.46176 -122.29936 438 ft 11 kts 257°
2026-04-25 00:53 47.46175 -122.30076 443 ft 15 kts 271°
2026-04-25 00:53 47.46179 -122.30204 444 ft 9 kts 275°
2026-04-25 00:54 47.46184 -122.30284 444 ft 10 kts 272°
2026-04-25 00:54 47.46184 -122.30391 444 ft 10 kts 270°
2026-04-25 00:54 47.46185 -122.30513 443 ft 12 kts 269°
2026-04-25 00:54 47.46174 -122.30589 435 ft 12 kts 222°
2026-04-25 00:55 47.46085 -122.30618 436 ft 15 kts 180°
2026-04-25 00:55 47.45934 -122.30619 438 ft 19 kts 180°
2026-04-25 00:55 47.45842 -122.30621 432 ft 20 kts 181°
2026-04-25 00:55 47.45700 -122.30622 435 ft 20 kts 181°
2026-04-25 00:56 47.45560 -122.30623 432 ft 20 kts 180°
2026-04-25 00:56 47.45413 -122.30625 427 ft 21 kts 180°
2026-04-25 00:56 47.45264 -122.30626 420 ft 22 kts 181°
2026-04-25 00:56 47.45111 -122.30627 414 ft 22 kts 179°
2026-04-25 00:57 47.44966 -122.30628 409 ft 20 kts 180°
2026-04-25 00:57 47.44827 -122.30629 404 ft 19 kts 180°
2026-04-25 00:57 47.44696 -122.30631 401 ft 18 kts 180°
2026-04-25 00:57 47.44573 -122.30631 397 ft 17 kts 180°
2026-04-25 00:58 47.44455 -122.30633 393 ft 18 kts 180°
2026-04-25 00:58 47.44336 -122.30634 391 ft 17 kts 180°
2026-04-25 00:58 47.44206 -122.30636 387 ft 19 kts 180°
2026-04-25 00:58 47.44072 -122.30637 384 ft 19 kts 180°
2026-04-25 00:59 47.43941 -122.30637 381 ft 19 kts 180°
2026-04-25 00:59 47.43810 -122.30639 377 ft 18 kts 180°
2026-04-25 00:59 47.43690 -122.30632 373 ft 17 kts 170°
2026-04-25 00:59 47.43582 -122.30576 370 ft 16 kts 160°
2026-04-25 01:00 47.43474 -122.30560 367 ft 15 kts 180°
2026-04-25 01:00 47.43375 -122.30562 369 ft 13 kts 180°
2026-04-25 01:00 47.43286 -122.30562 362 ft 13 kts 180°
2026-04-25 01:00 47.43195 -122.30617 360 ft 16 kts 222°
2026-04-25 01:01 47.43176 -122.30673 357 ft 0 kts 268°
2026-04-25 01:01 47.43175 -122.30725 356 ft 11 kts 274°
2026-04-25 01:01 47.43249 -122.30805 358 ft 18 kts 359°
2026-04-25 01:02 47.43435 -122.30803 362 ft 44 kts 359°
2026-04-25 01:02 47.43860 -122.30794 439 ft 69 kts 355°
2026-04-25 01:02 47.44378 -122.30774 579 ft 86 kts 358°
2026-04-25 01:02 47.45046 -122.30688 697 ft 103 kts 358°
2026-04-25 01:03 47.45774 -122.30579 929 ft 107 kts 359°
2026-04-25 01:03 47.46514 -122.30529 1236 ft 106 kts 358°
2026-04-25 01:03 47.47249 -122.30507 1542 ft 106 kts 358°
2026-04-25 01:03 47.47971 -122.30475 1850 ft 100 kts 358°
2026-04-25 01:04 47.48651 -122.30467 2144 ft 97 kts 358°
2026-04-25 01:04 47.49333 -122.30438 2422 ft 102 kts 359°
2026-04-25 01:04 47.50060 -122.30436 2676 ft 107 kts 359°
2026-04-25 01:04 47.50803 -122.30447 2930 ft 107 kts 358°
2026-04-25 01:05 47.51556 -122.30477 3188 ft 109 kts 358°
2026-04-25 01:05 47.52312 -122.30466 3446 ft 108 kts
2026-04-25 01:05 47.53066 -122.30402 3705 ft 109 kts
2026-04-25 01:05 47.53823 -122.30350 3997 ft 109 kts
2026-04-25 01:06 47.54589 -122.30298 4271 ft 111 kts
2026-04-25 01:06 47.55337 -122.30482 4556 ft 113 kts 344°
2026-04-25 01:06 47.56067 -122.30890 4844 ft 112 kts 345°
2026-04-25 01:06 47.56796 -122.31284 5121 ft 112 kts 345°
2026-04-25 01:07 47.57522 -122.31688 5383 ft 108 kts 345°
2026-04-25 01:07 47.58211 -122.32075 5667 ft 106 kts 346°
2026-04-25 01:07 47.58911 -122.32484 5918 ft 109 kts 345°
2026-04-25 01:07 47.59652 -122.32906 6016 ft 122 kts 345°
2026-04-25 01:08 47.60501 -122.33368 6021 ft 137 kts 345°
2026-04-25 01:08 47.61427 -122.33859 6028 ft 145 kts 345°
2026-04-25 01:08 47.62398 -122.34364 6025 ft 150 kts 345°
2026-04-25 01:08 47.63380 -122.34886 6025 ft 149 kts 346°
2026-04-25 01:09 47.64357 -122.35400 6025 ft 148 kts 345°
2026-04-25 01:09 47.65345 -122.35828 6009 ft 146 kts
2026-04-25 01:09 47.66281 -122.35409 6012 ft 141 kts 25°
2026-04-25 01:09 47.67241 -122.35131 6016 ft 141 kts
2026-04-25 01:10 47.68214 -122.34954 6026 ft 141 kts 11°
2026-04-25 01:10 47.69186 -122.34687 6023 ft 142 kts 13°
2026-04-25 01:10 47.70139 -122.34406 6022 ft 142 kts 13°
2026-04-25 01:10 47.71116 -122.34112 6021 ft 143 kts 13°
2026-04-25 01:11 47.72087 -122.33819 6025 ft 143 kts 13°
2026-04-25 01:11 47.73061 -122.33528 6034 ft 143 kts 12°
2026-04-25 01:11 47.74042 -122.33232 6031 ft 144 kts 13°
2026-04-25 01:11 47.75027 -122.32934 6039 ft 145 kts 12°
2026-04-25 01:12 47.76018 -122.32628 6034 ft 145 kts 13°
2026-04-25 01:12 47.77024 -122.32332 6037 ft 149 kts 13°
2026-04-25 01:12 47.78042 -122.32024 6032 ft 153 kts 13°
2026-04-25 01:12 47.79096 -122.31703 6021 ft 155 kts 12°
2026-04-25 01:13 47.80142 -122.31396 6024 ft 153 kts 12°
2026-04-25 01:13 47.81172 -122.31076 6023 ft 149 kts 13°
2026-04-25 01:13 47.82191 -122.30767 6019 ft 148 kts 12°
2026-04-25 01:13 47.83193 -122.30468 6019 ft 145 kts 12°
2026-04-25 01:14 47.84182 -122.30163 6019 ft 146 kts 12°
2026-04-25 01:14 47.85168 -122.29867 6016 ft 143 kts 12°
2026-04-25 01:14 47.86142 -122.29582 6023 ft 142 kts 14°
2026-04-25 01:14 47.87113 -122.29274 6019 ft 143 kts 13°
2026-04-25 01:15 47.88092 -122.28979 6016 ft 144 kts 13°
2026-04-25 01:15 47.89075 -122.28678 6022 ft 144 kts 13°
2026-04-25 01:15 47.90060 -122.28383 6025 ft 144 kts 13°
2026-04-25 01:15 47.91043 -122.28086 6022 ft 144 kts 12°
2026-04-25 01:16 47.92031 -122.27836 6022 ft 144 kts
2026-04-25 01:16 47.93027 -122.28099 6025 ft 147 kts 351°
2026-04-25 01:16 47.94033 -122.28391 6030 ft 148 kts 353°
2026-04-25 01:16 47.95025 -122.28680 6037 ft 147 kts 352°
2026-04-25 01:17 47.96033 -122.28965 6024 ft 146 kts 352°
2026-04-25 01:17 47.97025 -122.29252 6023 ft 145 kts 353°
2026-04-25 01:17 47.98009 -122.29537 6025 ft 143 kts 353°
2026-04-25 01:17 47.98983 -122.29820 6015 ft 142 kts 353°
2026-04-25 01:18 47.99956 -122.30100 6015 ft 142 kts 352°
2026-04-25 01:18 48.00931 -122.30379 6014 ft 143 kts 353°
2026-04-25 01:18 48.01911 -122.30663 6017 ft 143 kts 352°
2026-04-25 01:18 48.02886 -122.30949 6023 ft 143 kts 352°
2026-04-25 01:19 48.03860 -122.31230 6017 ft 143 kts 352°
2026-04-25 01:19 48.04836 -122.31511 6014 ft 142 kts 352°
2026-04-25 01:19 48.05798 -122.31791 6024 ft 143 kts 352°
2026-04-25 01:19 48.06774 -122.32073 6023 ft 143 kts 352°
2026-04-25 01:20 48.07748 -122.32355 6018 ft 143 kts 352°
2026-04-25 01:20 48.08724 -122.32637 6013 ft 142 kts 352°
2026-04-25 01:20 48.09696 -122.32921 6016 ft 143 kts 352°
2026-04-25 01:20 48.10675 -122.33207 6017 ft 142 kts 352°
2026-04-25 01:21 48.11652 -122.33486 6024 ft 145 kts 352°
2026-04-25 01:21 48.12643 -122.33777 6016 ft 146 kts 352°
2026-04-25 01:21 48.13639 -122.34067 6021 ft 146 kts 351°
2026-04-25 01:21 48.14652 -122.34359 6030 ft 149 kts 352°
2026-04-25 01:22 48.15667 -122.34652 6038 ft 149 kts 352°
2026-04-25 01:22 48.16687 -122.34951 6022 ft 149 kts 352°
2026-04-25 01:22 48.17712 -122.35248 6019 ft 149 kts 352°
2026-04-25 01:22 48.18733 -122.35554 6026 ft 149 kts 352°
2026-04-25 01:23 48.19757 -122.35847 6022 ft 150 kts 352°
2026-04-25 01:23 48.20770 -122.36140 6025 ft 149 kts 351°
2026-04-25 01:23 48.21793 -122.36436 6023 ft 150 kts 352°
2026-04-25 01:23 48.22817 -122.36737 6029 ft 150 kts 352°
2026-04-25 01:24 48.23837 -122.37038 6029 ft 149 kts 351°
2026-04-25 01:24 48.24857 -122.37336 6030 ft 150 kts 352°
2026-04-25 01:24 48.25885 -122.37634 6022 ft 150 kts 352°
2026-04-25 01:24 48.26903 -122.37931 6020 ft 148 kts 351°
2026-04-25 01:25 48.27905 -122.38224 6028 ft 146 kts 351°
2026-04-25 01:25 48.28899 -122.38515 6028 ft 146 kts 351°
2026-04-25 01:25 48.29898 -122.38809 6031 ft 146 kts 352°
2026-04-25 01:25 48.30895 -122.39100 6024 ft 146 kts 351°
2026-04-25 01:26 48.31891 -122.39389 6016 ft 145 kts 352°
2026-04-25 01:26 48.32874 -122.39678 6013 ft 143 kts 352°
2026-04-25 01:26 48.33847 -122.39960 6030 ft 143 kts 351°
2026-04-25 01:26 48.34818 -122.40322 6027 ft 145 kts 342°
2026-04-25 01:27 48.35751 -122.40904 6020 ft 144 kts 341°
2026-04-25 01:27 48.36693 -122.41469 5877 ft 146 kts 342°
2026-04-25 01:27 48.37642 -122.42036 5754 ft 148 kts 341°
2026-04-25 01:28 48.39545 -122.43180 5493 ft 148 kts 341°
2026-04-25 01:28 48.40499 -122.43744 5373 ft 147 kts 340°
2026-04-25 01:28 48.41446 -122.44328 5242 ft 146 kts 340°
2026-04-25 01:28 48.42392 -122.44903 5107 ft 147 kts 340°
2026-04-25 01:29 48.43304 -122.45450 4997 ft 148 kts 340°
2026-04-25 01:29 48.44257 -122.46019 4863 ft 147 kts 341°
2026-04-25 01:29 48.45210 -122.46587 4731 ft 148 kts 341°
2026-04-25 01:29 48.46159 -122.47159 4603 ft 146 kts 340°
2026-04-25 01:30 48.47098 -122.47723 4473 ft 145 kts 340°
2026-04-25 01:30 48.48037 -122.48288 4340 ft 146 kts 340°
2026-04-25 01:30 48.48983 -122.48856 4213 ft 147 kts 340°
2026-04-25 01:30 48.49923 -122.49419 4089 ft 147 kts 339°
2026-04-25 01:31 48.50872 -122.49989 4020 ft 145 kts 339°
2026-04-25 01:31 48.51807 -122.50554 4022 ft 146 kts 339°
2026-04-25 01:31 48.52752 -122.51121 4020 ft 146 kts 339°
2026-04-25 01:31 48.53700 -122.51692 4023 ft 147 kts 339°
2026-04-25 01:32 48.54649 -122.52263 4023 ft 147 kts 339°
2026-04-25 01:32 48.55600 -122.52835 4026 ft 147 kts 338°
2026-04-25 01:32 48.56552 -122.53409 4027 ft 148 kts 339°
2026-04-25 01:32 48.57549 -122.53711 4018 ft 147 kts
2026-04-25 01:33 48.58573 -122.53678 4020 ft 147 kts 359°
2026-04-25 01:33 48.59597 -122.53690 4023 ft 147 kts 359°
2026-04-25 01:33 48.60624 -122.53695 3946 ft 149 kts 359°
2026-04-25 01:33 48.61645 -122.53696 3726 ft 143 kts 359°
2026-04-25 01:34 48.62602 -122.53692 3466 ft 133 kts 358°
2026-04-25 01:34 48.63492 -122.53693 3202 ft 123 kts 358°
2026-04-25 01:34 48.64326 -122.53696 2993 ft 116 kts 358°
2026-04-25 01:34 48.65103 -122.53700 2823 ft 112 kts 357°
2026-04-25 01:35 48.65906 -122.53712 2613 ft 118 kts 357°
2026-04-25 01:35 48.66731 -122.53716 2415 ft 120 kts 356°
2026-04-25 01:35 48.67564 -122.53721 2238 ft 119 kts 357°
2026-04-25 01:35 48.68382 -122.53719 2128 ft 114 kts 356°
2026-04-25 01:36 48.69166 -122.53726 2015 ft 112 kts 356°
2026-04-25 01:36 48.69953 -122.53729 1870 ft 114 kts 356°
2026-04-25 01:36 48.70765 -122.53734 1716 ft 119 kts 356°
2026-04-25 01:36 48.71605 -122.53737 1554 ft 122 kts 357°
2026-04-25 01:37 48.72453 -122.53739 1382 ft 121 kts 357°
2026-04-25 01:37 48.73293 -122.53741 1207 ft 120 kts 357°
2026-04-25 01:37 48.74122 -122.53743 1029 ft 117 kts 355°
2026-04-25 01:37 48.74900 -122.53742 884 ft 105 kts 357°
2026-04-25 01:38 48.75591 -122.53741 743 ft 92 kts 355°
2026-04-25 01:38 48.76179 -122.53746 632 ft 79 kts 353°
2026-04-25 01:38 48.76716 -122.53759 531 ft 77 kts 352°
2026-04-25 01:38 48.77250 -122.53751 430 ft 76 kts 356°
2026-04-25 01:39 48.77776 -122.53753 341 ft 77 kts 354°
2026-04-25 01:39 48.78319 -122.53751 245 ft 80 kts 353°
2026-04-25 01:39 48.78864 -122.53753 178 ft 71 kts 356°
2026-04-25 01:39 48.79234 -122.53732 174 ft 30 kts 26°
2026-04-25 01:40 48.79331 -122.53619 174 ft 5 kts 37°
2026-04-25 01:40 48.79331 -122.53618 174 ft 0 kts 36°
2026-04-25 01:42 48.79349 -122.53599 174 ft 9 kts 33°
2026-04-25 01:43 48.79438 -122.53585 174 ft 14 kts
2026-04-25 01:43 48.79534 -122.53584 173 ft 16 kts 359°
2026-04-25 01:43 48.79665 -122.53585 173 ft 20 kts 360°
2026-04-25 01:43 48.79807 -122.53587 173 ft 21 kts 354°
2026-04-25 01:44 48.79900 -122.53555 172 ft 10 kts 71°
2026-04-25 01:44 48.79907 -122.53485 172 ft 5 kts 70°
2026-04-25 01:44 48.79922 -122.53458 172 ft 4 kts 46°
2026-04-25 01:44 48.79914 -122.53443 172 ft 0 kts 163°
2026-04-25 01:45 48.79912 -122.53442 172 ft 0 kts 162°